SL-24 R/B, 40047

Orbit data source: Space-Track

SL-24 R/B, 40047 is space debris in SSO originally from a launch on Thu, 19 Jun 2014 UTC launched from the Orenburg, Russia (OREN). Debris objects in space refer to the collection of defunct objects orbiting the Earth. Examples of debris include non-operational satellites, rocket bodies, and fragments generated from explosions, collisions, or faulty payload assembly.

Loading next visibility...
Identifier
40047, 2014-033AP
Orbit
SSO
Country
Flag of CISCIS
Related business
Manufacturer
Yuzhnoe
Mission
Spacecraft
Bus & Motor
15A18-BR, Unknown motor
Mass
~1,000 kg wet, ~1,000 kg dry
Launch date (UTC)
2014-06-19 (12 years ago)
Launch vehicle
Unknown
Launch site
Orenburg, Russia (OREN)
Object type
Payload
Rocket body
Debris
Shape & HBR
Cyl, 1.5 m
Radar Cross Section
10.603 m², Large (>1 m²)

Expand to show TLE details & history
Last TLE update: 5 hours ago

TLE from 5 hours ago
0 SL-24 R/B
1 40047U 14033AP  26119.63291975  .00000076  00000-0  46834-4 0  9999
2 40047  97.8747 347.2930 0568553  61.0310 304.6615 13.61958929589426
Epoch: 2026-04-29T15:11Z
TLE epoch observation values (Epoch: 2026-04-29T15:11:24.266Z)
Latitude
-0.00004°
Longitude
-98.14919°
Altitude
808.897 km
Speed
7.56 km/s
True Right ascension
23h 09m 10s
True Declination
0° 00' 00"
Sunlit
Object was in daylight at epoch
Visualization orbit readout
Latitude
Unknown
Longitude
Unknown
Altitude
Unknown
Speed
Unknown
Apparent Right ascension
Unknown
Apparent Declination
Unknown
Sunlit
N/A
Visualization observer readout
Local Sidereal Time
03:31:36
Azimuth
Unknown
Elevation
Unknown
Doppler factor
Unknown
Orbital elements
Apogee altitude
1,446.719 km
Perigee altitude
604.816 km
Semi-major axis
7,403.904 km
Eccentricity
0.05686
Inclination
97.8747°
RAAN
347.293°
Arg. of periapsis
61.031°
True anomaly
299.08616°
Mean anomaly
304.6615°
Eccentric anomaly
301.89579°
Mean motion
3.40684 °/min
Orbital period
105.67 mins
BSTAR
0.000046834
Loading maneuver chart data...
Computing Atmospheric mass density...
Loading historical data...
Loading historical data...
Loading historical data...
Loading historical data...
Loading historical data...
Loading historical data...
Loading historical data...

Documentation

Showing up to 5 results
|